Time,TemperatureF,DewpointF,PressureIn,WindDirection,WindDirectionDegrees,WindSpeedMPH,WindSpeedGustMPH,Humidity,HourlyPrecipIn,Conditions,Clouds,dailyrainin,SoftwareType,DateUTC
2013-12-20 00:01:00,49.1,32.7,30.23,SW,222,1.0,-999.0,53,0.00,,,0.00,WeatherSnoop3.0,2013-12-20 05:01:00,
2013-12-20 00:02:00,49.1,32.7,30.23,SW,229,1.0,-999.0,53,0.00,,,0.00,WeatherSnoop3.0,2013-12-20 05:02:00,
2013-12-20 00:07:00,49.1,32.7,30.23,SW,226,1.0,-999.0,53,0.00,,,0.00,WeatherSnoop3.0,2013-12-20 05:07:00,
2013-12-20 00:12:00,49.1,33.2,30.23,WSW,257,0.0,-999.0,54,0.00,,,0.00,WeatherSnoop3.0,2013-12-20 05:12:00,
2013-12-20 00:17:00,49.0,33.1,30.23,West,264,1.0,-999.0,54,0.00,,,0.00,WeatherSnoop3.0,2013-12-20 05:17:00,
2013-12-20 00:22:00,48.8,33.4,30.22,West,265,0.0,-999.0,55,0.00,,,0.00,WeatherSnoop3.0,2013-12-20 05:22:00,
2013-12-20 00:27:00,48.7,33.3,30.22,West,271,1.0,-999.0,55,0.00,,,0.00,WeatherSnoop3.0,2013-12-20 05:27:00,
2013-12-20 00:32:00,48.7,33.7,30.23,WSW,246,0.0,-999.0,56,0.00,,,0.00,WeatherSnoop3.0,2013-12-20 05:32:00,
2013-12-20 00:37:00,48.4,33.4,30.22,WSW,246,0.0,-999.0,56,0.00,,,0.00,WeatherSnoop3.0,2013-12-20 05:37:00,
2013-12-20 00:42:00,48.3,34.2,30.22,West,271,2.0,-999.0,58,0.00,,,0.00,WeatherSnoop3.0,2013-12-20 05:42:00,
2013-12-20 00:47:00,48.7,34.6,30.23,West,264,1.0,-999.0,58,0.00,,,0.00,WeatherSnoop3.0,2013-12-20 05:47:00,
2013-12-20 00:52:00,48.5,34.4,30.23,West,266,0.0,-999.0,58,0.00,,,0.00,WeatherSnoop3.0,2013-12-20 05:52:00,
2013-12-20 00:57:00,48.5,34.8,30.23,WSW,242,0.0,-999.0,59,0.00,,,0.00,WeatherSnoop3.0,2013-12-20 05:57:00,
2013-12-20 01:02:00,48.1,34.9,30.22,WSW,242,0.0,-999.0,60,0.00,,,0.00,WeatherSnoop3.0,2013-12-20 06:02:00,
2013-12-20 01:07:00,47.9,35.1,30.23,WSW,257,1.0,-999.0,61,0.00,,,0.00,WeatherSnoop3.0,2013-12-20 06:07:00,
2013-12-20 01:12:00,47.8,35.0,30.23,WSW,256,0.0,-999.0,61,0.00,,,0.00,WeatherSnoop3.0,2013-12-20 06:12:00,
2013-12-20 01:17:00,47.7,35.3,30.22,WSW,256,0.0,-999.0,62,0.00,,,0.00,WeatherSnoop3.0,2013-12-20 06:17:00,
2013-12-20 01:22:00,47.6,35.6,30.22,WSW,256,0.0,-999.0,63,0.00,,,0.00,WeatherSnoop3.0,2013-12-20 06:22:00,
2013-12-20 01:27:00,47.5,35.5,30.22,WSW,256,0.0,-999.0,63,0.00,,,0.00,WeatherSnoop3.0,2013-12-20 06:27:00,
2013-12-20 01:32:00,47.6,36.0,30.22,WSW,256,0.0,-999.0,64,0.00,,,0.00,WeatherSnoop3.0,2013-12-20 06:32:00,
2013-12-20 01:37:00,47.7,36.1,30.22,WSW,250,0.0,-999.0,64,0.00,,,0.00,WeatherSnoop3.0,2013-12-20 06:37:00,
2013-12-20 01:42:00,47.6,36.0,30.22,WSW,250,0.0,-999.0,64,0.00,,,0.00,WeatherSnoop3.0,2013-12-20 06:42:00,
2013-12-20 01:47:00,47.5,35.9,30.22,WSW,250,0.0,-999.0,64,0.00,,,0.00,WeatherSnoop3.0,2013-12-20 06:47:00,
2013-12-20 01:52:00,47.4,36.2,30.22,WSW,250,0.0,-999.0,65,0.00,,,0.00,WeatherSnoop3.0,2013-12-20 06:52:00,
2013-12-20 01:57:00,47.3,36.1,30.22,WSW,250,0.0,-999.0,65,0.00,,,0.00,WeatherSnoop3.0,2013-12-20 06:57:00,
2013-12-20 02:02:00,47.3,36.5,30.22,WSW,250,1.0,-999.0,66,0.00,,,0.00,WeatherSnoop3.0,2013-12-20 07:02:00,
2013-12-20 02:07:00,47.2,36.4,30.22,WSW,250,0.0,-999.0,66,0.00,,,0.00,WeatherSnoop3.0,2013-12-20 07:07:00,
2013-12-20 02:12:00,47.1,36.7,30.22,WSW,250,0.0,-999.0,67,0.00,,,0.00,WeatherSnoop3.0,2013-12-20 07:12:00,
2013-12-20 02:17:00,47.0,36.6,30.21,WSW,250,0.0,-999.0,67,0.00,,,0.00,WeatherSnoop3.0,2013-12-20 07:17:00,
2013-12-20 02:22:00,47.0,37.0,30.21,WSW,250,0.0,-999.0,68,0.00,,,0.00,WeatherSnoop3.0,2013-12-20 07:22:00,
2013-12-20 02:27:00,46.9,36.9,30.21,WSW,250,0.0,-999.0,68,0.00,,,0.00,WeatherSnoop3.0,2013-12-20 07:27:00,
2013-12-20 02:32:00,46.9,36.9,30.21,WSW,250,0.0,-999.0,68,0.00,,,0.00,WeatherSnoop3.0,2013-12-20 07:32:00,
2013-12-20 02:37:00,46.8,37.2,30.22,WSW,250,0.0,-999.0,69,0.00,,,0.00,WeatherSnoop3.0,2013-12-20 07:37:00,
2013-12-20 02:42:00,46.7,37.1,30.22,WSW,250,0.0,-999.0,69,0.00,,,0.00,WeatherSnoop3.0,2013-12-20 07:42:00,
2013-12-20 02:47:00,46.5,37.3,30.22,WSW,250,0.0,-999.0,70,0.00,,,0.00,WeatherSnoop3.0,2013-12-20 07:47:00,
2013-12-20 02:52:00,46.5,37.3,30.22,WSW,250,0.0,-999.0,70,0.00,,,0.00,WeatherSnoop3.0,2013-12-20 07:52:00,
2013-12-20 02:57:00,46.5,37.6,30.22,WSW,250,0.0,-999.0,71,0.00,,,0.00,WeatherSnoop3.0,2013-12-20 07:57:00,
2013-12-20 03:02:00,46.6,37.7,30.22,SE,141,1.0,-999.0,71,0.00,,,0.00,WeatherSnoop3.0,2013-12-20 08:02:00,
2013-12-20 03:07:00,46.7,38.2,30.22,South,176,0.0,-999.0,72,0.00,,,0.00,WeatherSnoop3.0,2013-12-20 08:07:00,
2013-12-20 03:12:00,47.0,38.4,30.22,SSW,212,0.0,-999.0,72,0.00,,,0.00,WeatherSnoop3.0,2013-12-20 08:12:00,
2013-12-20 03:17:00,46.9,38.7,30.22,SSW,212,0.0,-999.0,73,0.00,,,0.00,WeatherSnoop3.0,2013-12-20 08:17:00,
2013-12-20 03:22:00,46.9,38.7,30.22,SSW,212,0.0,-999.0,73,0.00,,,0.00,WeatherSnoop3.0,2013-12-20 08:22:00,
2013-12-20 03:27:00,46.6,38.4,30.22,SSW,212,0.0,-999.0,73,0.00,,,0.00,WeatherSnoop3.0,2013-12-20 08:27:00,
2013-12-20 03:32:00,46.4,38.9,30.22,SSW,212,0.0,-999.0,75,0.00,,,0.00,WeatherSnoop3.0,2013-12-20 08:32:00,
2013-12-20 03:37:00,46.4,39.3,30.22,SSW,212,0.0,-999.0,76,0.00,,,0.00,WeatherSnoop3.0,2013-12-20 08:37:00,
2013-12-20 03:42:00,46.6,39.4,30.22,SSW,212,0.0,-999.0,76,0.00,,,0.00,WeatherSnoop3.0,2013-12-20 08:42:00,
2013-12-20 03:47:00,46.7,39.5,30.22,SSW,212,0.0,-999.0,76,0.00,,,0.00,WeatherSnoop3.0,2013-12-20 08:47:00,
2013-12-20 03:52:00,46.6,39.4,30.22,SSW,212,0.0,-999.0,76,0.00,,,0.00,WeatherSnoop3.0,2013-12-20 08:52:00,
2013-12-20 03:57:00,46.6,39.8,30.22,SSW,212,0.0,-999.0,77,0.00,,,0.00,WeatherSnoop3.0,2013-12-20 08:57:00,
2013-12-20 04:02:00,46.7,40.2,30.22,SSW,212,0.0,-999.0,78,0.00,,,0.00,WeatherSnoop3.0,2013-12-20 09:02:00,
2013-12-20 04:07:00,46.8,40.3,30.22,SSW,212,0.0,-999.0,78,0.00,,,0.00,WeatherSnoop3.0,2013-12-20 09:07:00,
2013-12-20 04:12:00,46.8,40.3,30.22,SSW,212,0.0,-999.0,78,0.00,,,0.00,WeatherSnoop3.0,2013-12-20 09:12:00,
2013-12-20 04:17:00,46.8,40.6,30.22,SSW,212,0.0,-999.0,79,0.00,,,0.00,WeatherSnoop3.0,2013-12-20 09:17:00,
2013-12-20 04:22:00,46.9,41.1,30.22,SSW,212,0.0,-999.0,80,0.00,,,0.00,WeatherSnoop3.0,2013-12-20 09:22:00,
2013-12-20 04:27:00,46.9,41.1,30.22,SSW,213,0.0,-999.0,80,0.00,,,0.00,WeatherSnoop3.0,2013-12-20 09:27:00,
2013-12-20 04:32:00,46.8,41.0,30.22,SSW,213,0.0,-999.0,80,0.00,,,0.00,WeatherSnoop3.0,2013-12-20 09:32:00,
2013-12-20 04:37:00,46.7,40.9,30.22,SSW,212,0.0,-999.0,80,0.00,,,0.00,WeatherSnoop3.0,2013-12-20 09:37:00,
2013-12-20 04:42:00,46.5,41.0,30.22,SSW,212,0.0,-999.0,81,0.00,,,0.00,WeatherSnoop3.0,2013-12-20 09:42:00,
2013-12-20 04:47:00,46.5,41.3,30.22,SSW,212,0.0,-999.0,82,0.00,,,0.00,WeatherSnoop3.0,2013-12-20 09:47:00,
2013-12-20 04:52:00,46.4,41.2,30.22,SSW,212,0.0,-999.0,82,0.00,,,0.00,WeatherSnoop3.0,2013-12-20 09:52:00,
2013-12-20 04:57:00,46.1,40.9,30.22,SSW,212,0.0,-999.0,82,0.00,,,0.00,WeatherSnoop3.0,2013-12-20 09:57:00,
2013-12-20 05:02:00,46.0,41.1,30.22,SSW,213,0.0,-999.0,83,0.00,,,0.00,WeatherSnoop3.0,2013-12-20 10:02:00,
2013-12-20 05:07:00,45.8,40.9,30.23,SSW,212,0.0,-999.0,83,0.00,,,0.00,WeatherSnoop3.0,2013-12-20 10:07:00,
2013-12-20 05:12:00,45.6,40.7,30.22,SSW,212,0.0,-999.0,83,0.00,,,0.00,WeatherSnoop3.0,2013-12-20 10:12:00,
2013-12-20 05:17:00,45.5,41.0,30.23,SSW,212,0.0,-999.0,84,0.00,,,0.00,WeatherSnoop3.0,2013-12-20 10:17:00,
2013-12-20 05:22:00,45.3,40.8,30.23,SSW,212,0.0,-999.0,84,0.00,,,0.00,WeatherSnoop3.0,2013-12-20 10:22:00,
2013-12-20 05:27:00,45.2,41.0,30.23,SSW,212,0.0,-999.0,85,0.00,,,0.00,WeatherSnoop3.0,2013-12-20 10:27:00,
2013-12-20 05:32:00,45.1,40.9,30.23,SSW,212,0.0,-999.0,85,0.00,,,0.00,WeatherSnoop3.0,2013-12-20 10:32:00,
2013-12-20 05:37:00,45.0,40.8,30.23,SSW,212,0.0,-999.0,85,0.00,,,0.00,WeatherSnoop3.0,2013-12-20 10:37:00,
2013-12-20 05:42:00,44.8,40.6,30.23,SSW,212,0.0,-999.0,85,0.00,,,0.00,WeatherSnoop3.0,2013-12-20 10:42:00,
2013-12-20 05:47:00,44.7,40.5,30.23,SSW,212,0.0,-999.0,85,0.00,,,0.00,WeatherSnoop3.0,2013-12-20 10:47:00,
2013-12-20 05:52:00,44.7,40.5,30.23,SW,214,0.0,-999.0,85,0.00,,,0.00,WeatherSnoop3.0,2013-12-20 10:52:00,
2013-12-20 05:57:00,44.7,40.5,30.23,SSW,212,0.0,-999.0,85,0.00,,,0.00,WeatherSnoop3.0,2013-12-20 10:57:00,
2013-12-20 06:02:00,44.6,40.4,30.23,SSW,212,0.0,-999.0,85,0.00,,,0.00,WeatherSnoop3.0,2013-12-20 11:02:00,
2013-12-20 06:07:00,44.4,40.2,30.23,SW,214,0.0,-999.0,85,0.00,,,0.00,WeatherSnoop3.0,2013-12-20 11:07:00,
2013-12-20 06:12:00,44.2,40.0,30.23,SSW,212,0.0,-999.0,85,0.00,,,0.00,WeatherSnoop3.0,2013-12-20 11:12:00,
2013-12-20 06:17:00,44.0,40.1,30.23,SSW,212,0.0,-999.0,86,0.00,,,0.00,WeatherSnoop3.0,2013-12-20 11:17:00,
2013-12-20 06:22:00,43.7,39.8,30.23,SSW,212,0.0,-999.0,86,0.00,,,0.00,WeatherSnoop3.0,2013-12-20 11:22:00,
2013-12-20 06:27:00,43.3,39.4,30.23,SSW,212,0.0,-999.0,86,0.00,,,0.00,WeatherSnoop3.0,2013-12-20 11:27:00,
2013-12-20 06:32:00,43.1,39.5,30.23,SSW,212,0.0,-999.0,87,0.00,,,0.00,WeatherSnoop3.0,2013-12-20 11:32:00,
2013-12-20 06:37:00,42.9,39.3,30.23,SSW,212,0.0,-999.0,87,0.00,,,0.00,WeatherSnoop3.0,2013-12-20 11:37:00,
2013-12-20 06:42:00,42.9,39.3,30.24,SSW,212,0.0,-999.0,87,0.00,,,0.00,WeatherSnoop3.0,2013-12-20 11:42:00,
2013-12-20 06:47:00,42.8,39.2,30.23,SSW,212,0.0,-999.0,87,0.00,,,0.00,WeatherSnoop3.0,2013-12-20 11:47:00,
2013-12-20 06:52:00,42.7,39.1,30.23,SSW,212,0.0,-999.0,87,0.00,,,0.00,WeatherSnoop3.0,2013-12-20 11:52:00,
2013-12-20 06:57:00,42.6,39.3,30.23,SSW,212,0.0,-999.0,88,0.00,,,0.00,WeatherSnoop3.0,2013-12-20 11:57:00,
2013-12-20 07:02:00,42.6,39.6,30.23,SSW,212,0.0,-999.0,89,0.00,,,0.00,WeatherSnoop3.0,2013-12-20 12:02:00,
2013-12-20 07:07:00,42.7,39.7,30.23,SSW,212,0.0,-999.0,89,0.00,,,0.00,WeatherSnoop3.0,2013-12-20 12:07:00,
2013-12-20 07:12:00,42.7,39.4,30.23,SSW,212,0.0,-999.0,88,0.00,,,0.00,WeatherSnoop3.0,2013-12-20 12:12:00,
2013-12-20 07:17:00,42.5,39.2,30.23,SSW,212,0.0,-999.0,88,0.00,,,0.00,WeatherSnoop3.0,2013-12-20 12:17:00,
2013-12-20 07:22:00,42.4,39.4,30.23,SSW,212,0.0,-999.0,89,0.00,,,0.00,WeatherSnoop3.0,2013-12-20 12:22:00,
2013-12-20 07:27:00,42.2,39.2,30.23,SSW,212,0.0,-999.0,89,0.00,,,0.00,WeatherSnoop3.0,2013-12-20 12:27:00,
2013-12-20 07:32:00,42.2,39.2,30.23,SSW,212,0.0,-999.0,89,0.00,,,0.00,WeatherSnoop3.0,2013-12-20 12:32:00,
2013-12-20 07:37:00,42.2,39.2,30.24,SSW,212,0.0,-999.0,89,0.00,,,0.00,WeatherSnoop3.0,2013-12-20 12:37:00,
2013-12-20 07:42:00,42.2,39.2,30.24,SSW,212,0.0,-999.0,89,0.00,,,0.00,WeatherSnoop3.0,2013-12-20 12:42:00,
2013-12-20 07:47:00,42.3,39.6,30.24,SSW,212,0.0,-999.0,90,0.00,,,0.00,WeatherSnoop3.0,2013-12-20 12:47:00,
2013-12-20 07:52:00,42.5,39.8,30.24,SSW,212,0.0,-999.0,90,0.00,,,0.00,WeatherSnoop3.0,2013-12-20 12:52:00,
2013-12-20 07:57:00,42.6,39.6,30.24,SSW,212,0.0,-999.0,89,0.00,,,0.00,WeatherSnoop3.0,2013-12-20 12:57:00,
2013-12-20 08:02:00,42.8,39.8,30.23,SSW,212,0.0,-999.0,89,0.00,,,0.00,WeatherSnoop3.0,2013-12-20 13:02:00,
2013-12-20 08:07:00,43.0,40.0,30.23,SSW,212,0.0,-999.0,89,0.00,,,0.00,WeatherSnoop3.0,2013-12-20 13:07:00,
2013-12-20 08:12:00,43.4,40.4,30.23,SSW,212,0.0,-999.0,89,0.00,,,0.00,WeatherSnoop3.0,2013-12-20 13:12:00,
2013-12-20 08:17:00,43.7,40.7,30.23,SSW,212,0.0,-999.0,89,0.00,,,0.00,WeatherSnoop3.0,2013-12-20 13:17:00,
2013-12-20 08:22:00,44.1,41.1,30.23,SSW,212,0.0,-999.0,89,0.00,,,0.00,WeatherSnoop3.0,2013-12-20 13:22:00,
2013-12-20 08:27:00,44.4,41.1,30.23,SSW,212,0.0,-999.0,88,0.00,,,0.00,WeatherSnoop3.0,2013-12-20 13:27:00,
2013-12-20 08:32:00,44.9,41.6,30.23,SSW,212,0.0,-999.0,88,0.00,,,0.00,WeatherSnoop3.0,2013-12-20 13:32:00,
2013-12-20 08:37:00,45.4,41.8,30.23,SSW,210,1.0,-999.0,87,0.00,,,0.00,WeatherSnoop3.0,2013-12-20 13:37:00,
2013-12-20 08:42:00,45.9,42.3,30.23,SSW,208,1.0,-999.0,87,0.00,,,0.00,WeatherSnoop3.0,2013-12-20 13:42:00,
2013-12-20 08:47:00,46.8,42.8,30.23,SE,136,1.0,-999.0,86,0.00,,,0.00,WeatherSnoop3.0,2013-12-20 13:47:00,
2013-12-20 08:52:00,48.0,43.7,30.24,SE,136,1.0,-999.0,85,0.00,,,0.00,WeatherSnoop3.0,2013-12-20 13:52:00,
2013-12-20 08:57:00,48.9,44.3,30.24,SE,141,0.0,-999.0,84,0.00,,,0.00,WeatherSnoop3.0,2013-12-20 13:57:00,
2013-12-20 09:02:00,49.7,45.1,30.24,South,170,0.0,-999.0,84,0.00,,,0.00,WeatherSnoop3.0,2013-12-20 14:02:00,
2013-12-20 09:07:00,50.6,45.9,30.24,SSE,157,1.0,-999.0,84,0.00,,,0.00,WeatherSnoop3.0,2013-12-20 14:07:00,
2013-12-20 09:12:00,51.5,46.5,30.24,SSE,160,2.0,-999.0,83,0.00,,,0.00,WeatherSnoop3.0,2013-12-20 14:12:00,
2013-12-20 09:17:00,52.2,46.9,30.24,SSW,208,1.0,-999.0,82,0.00,,,0.00,WeatherSnoop3.0,2013-12-20 14:17:00,
2013-12-20 09:22:00,52.7,47.4,30.24,WSW,245,1.0,-999.0,82,0.00,,,0.00,WeatherSnoop3.0,2013-12-20 14:22:00,
2013-12-20 09:27:00,53.3,48.3,30.24,West,270,0.0,-999.0,83,0.00,,,0.00,WeatherSnoop3.0,2013-12-20 14:27:00,
2013-12-20 09:32:00,53.9,48.9,30.25,West,276,2.0,-999.0,83,0.00,,,0.00,WeatherSnoop3.0,2013-12-20 14:32:00,
2013-12-20 09:37:00,54.4,49.0,30.24,West,269,1.0,-999.0,82,0.00,,,0.00,WeatherSnoop3.0,2013-12-20 14:37:00,
2013-12-20 09:42:00,54.7,49.3,30.25,WSW,252,1.0,-999.0,82,0.00,,,0.00,WeatherSnoop3.0,2013-12-20 14:42:00,
2013-12-20 09:47:00,55.0,49.6,30.25,SW,225,1.0,-999.0,82,0.00,,,0.00,WeatherSnoop3.0,2013-12-20 14:47:00,
2013-12-20 09:52:00,55.3,49.9,30.24,West,260,2.0,-999.0,82,0.00,,,0.00,WeatherSnoop3.0,2013-12-20 14:52:00,
2013-12-20 09:57:00,55.7,50.0,30.25,West,267,2.0,-999.0,81,0.00,,,0.00,WeatherSnoop3.0,2013-12-20 14:57:00,
2013-12-20 10:02:00,56.0,50.3,30.25,WNW,285,1.0,-999.0,81,0.00,,,0.00,WeatherSnoop3.0,2013-12-20 15:02:00,
2013-12-20 10:07:00,56.3,50.5,30.24,WSW,248,1.0,-999.0,81,0.00,,,0.00,WeatherSnoop3.0,2013-12-20 15:07:00,
2013-12-20 10:12:00,56.8,50.7,30.25,West,271,1.0,-999.0,80,0.00,,,0.00,WeatherSnoop3.0,2013-12-20 15:12:00,
2013-12-20 10:17:00,57.3,51.2,30.25,SE,145,1.0,-999.0,80,0.00,,,0.00,WeatherSnoop3.0,2013-12-20 15:17:00,
2013-12-20 10:22:00,58.1,52.0,30.24,WNW,283,0.0,-999.0,80,0.00,,,0.00,WeatherSnoop3.0,2013-12-20 15:22:00,
2013-12-20 10:27:00,58.7,51.5,30.24,East,96,2.0,-999.0,77,0.00,,,0.00,WeatherSnoop3.0,2013-12-20 15:27:00,
2013-12-20 10:32:00,59.0,51.8,30.24,SSE,158,4.0,-999.0,77,0.00,,,0.00,WeatherSnoop3.0,2013-12-20 15:32:00,
2013-12-20 10:37:00,59.3,52.1,30.23,SW,235,1.0,-999.0,77,0.00,,,0.00,WeatherSnoop3.0,2013-12-20 15:37:00,
2013-12-20 10:42:00,59.7,52.1,30.24,WSW,256,1.0,-999.0,76,0.00,,,0.00,WeatherSnoop3.0,2013-12-20 15:42:00,
2013-12-20 10:47:00,60.0,52.1,30.24,West,262,2.0,-999.0,75,0.00,,,0.00,WeatherSnoop3.0,2013-12-20 15:47:00,
2013-12-20 10:52:00,60.0,52.1,30.24,SSE,150,2.0,-999.0,75,0.00,,,0.00,WeatherSnoop3.0,2013-12-20 15:52:00,
2013-12-20 10:57:00,60.1,52.1,30.24,West,279,5.0,-999.0,75,0.00,,,0.00,WeatherSnoop3.0,2013-12-20 15:57:00,
2013-12-20 11:02:00,59.9,52.0,30.23,West,262,3.0,-999.0,75,0.00,,,0.00,WeatherSnoop3.0,2013-12-20 16:02:00,
2013-12-20 11:07:00,60.1,52.1,30.23,WNW,284,0.0,-999.0,75,0.00,,,0.00,WeatherSnoop3.0,2013-12-20 16:07:00,
2013-12-20 11:12:00,60.4,52.1,30.22,West,273,1.0,-999.0,74,0.00,,,0.00,WeatherSnoop3.0,2013-12-20 16:12:00,
2013-12-20 11:17:00,60.5,52.2,30.22,WSW,255,1.0,-999.0,74,0.00,,,0.00,WeatherSnoop3.0,2013-12-20 16:17:00,
2013-12-20 11:22:00,60.6,52.3,30.22,West,266,1.0,-999.0,74,0.00,,,0.00,WeatherSnoop3.0,2013-12-20 16:22:00,
2013-12-20 11:27:00,60.7,52.4,30.22,SSW,205,1.0,-999.0,74,0.00,,,0.00,WeatherSnoop3.0,2013-12-20 16:27:00,
2013-12-20 11:32:00,60.8,52.5,30.22,SW,214,0.0,-999.0,74,0.00,,,0.00,WeatherSnoop3.0,2013-12-20 16:32:00,
2013-12-20 11:37:00,61.0,52.3,30.22,SW,215,2.0,-999.0,73,0.00,,,0.00,WeatherSnoop3.0,2013-12-20 16:37:00,
2013-12-20 11:42:00,61.4,53.0,30.21,SW,221,1.0,-999.0,74,0.00,,,0.00,WeatherSnoop3.0,2013-12-20 16:42:00,
2013-12-20 11:47:00,61.7,53.0,30.20,WSW,246,1.0,-999.0,73,0.00,,,0.00,WeatherSnoop3.0,2013-12-20 16:47:00,
2013-12-20 11:52:00,62.0,53.2,30.20,SE,143,5.0,-999.0,73,0.00,,,0.00,WeatherSnoop3.0,2013-12-20 16:52:00,
2013-12-20 11:57:00,62.6,53.4,30.20,SSE,162,0.0,-999.0,72,0.00,,,0.00,WeatherSnoop3.0,2013-12-20 16:57:00,
2013-12-20 12:02:00,62.8,53.3,30.19,WNW,283,0.0,-999.0,71,0.00,,,0.00,WeatherSnoop3.0,2013-12-20 17:02:00,
2013-12-20 12:07:00,62.8,53.6,30.19,West,259,2.0,-999.0,72,0.00,,,0.00,WeatherSnoop3.0,2013-12-20 17:07:00,
2013-12-20 12:12:00,63.0,53.8,30.19,SSE,159,3.0,-999.0,72,0.00,,,0.00,WeatherSnoop3.0,2013-12-20 17:12:00,
2013-12-20 12:17:00,63.5,53.9,30.19,SSE,149,1.0,-999.0,71,0.00,,,0.00,WeatherSnoop3.0,2013-12-20 17:17:00,
2013-12-20 12:22:00,63.9,53.9,30.18,West,259,3.0,-999.0,70,0.00,,,0.00,WeatherSnoop3.0,2013-12-20 17:22:00,
2013-12-20 12:27:00,64.3,54.3,30.18,West,274,0.0,-999.0,70,0.00,,,0.00,WeatherSnoop3.0,2013-12-20 17:27:00,
2013-12-20 12:32:00,64.3,54.3,30.17,South,191,1.0,-999.0,70,0.00,,,0.00,WeatherSnoop3.0,2013-12-20 17:32:00,
2013-12-20 12:37:00,64.3,54.7,30.17,East,82,1.0,-999.0,71,0.00,,,0.00,WeatherSnoop3.0,2013-12-20 17:37:00,
2013-12-20 12:42:00,64.5,54.9,30.17,SSW,210,2.0,-999.0,71,0.00,,,0.00,WeatherSnoop3.0,2013-12-20 17:42:00,
2013-12-20 12:47:00,64.5,54.9,30.16,SW,214,2.0,-999.0,71,0.00,,,0.00,WeatherSnoop3.0,2013-12-20 17:47:00,
2013-12-20 12:52:00,64.6,55.0,30.16,SSE,150,3.0,-999.0,71,0.00,,,0.00,WeatherSnoop3.0,2013-12-20 17:52:00,
2013-12-20 12:57:00,64.6,55.0,30.16,West,276,2.0,-999.0,71,0.00,,,0.00,WeatherSnoop3.0,2013-12-20 17:57:00,
2013-12-20 13:02:00,64.6,55.0,30.16,SSW,207,2.0,-999.0,71,0.00,,,0.00,WeatherSnoop3.0,2013-12-20 18:02:00,
2013-12-20 13:07:00,64.5,54.9,30.16,West,262,2.0,-999.0,71,0.00,,,0.00,WeatherSnoop3.0,2013-12-20 18:07:00,
2013-12-20 13:12:00,64.6,55.4,30.16,West,281,2.0,-999.0,72,0.00,,,0.00,WeatherSnoop3.0,2013-12-20 18:12:00,
2013-12-20 13:17:00,65.0,55.4,30.15,WNW,283,4.0,-999.0,71,0.00,,,0.00,WeatherSnoop3.0,2013-12-20 18:17:00,
2013-12-20 13:22:00,65.1,55.5,30.15,SSW,200,1.0,-999.0,71,0.00,,,0.00,WeatherSnoop3.0,2013-12-20 18:22:00,
2013-12-20 13:27:00,65.6,55.5,30.15,West,278,2.0,-999.0,70,0.00,,,0.00,WeatherSnoop3.0,2013-12-20 18:27:00,
2013-12-20 13:32:00,65.8,55.3,30.15,West,276,2.0,-999.0,69,0.00,,,0.00,WeatherSnoop3.0,2013-12-20 18:32:00,
2013-12-20 13:37:00,65.4,55.4,30.15,WSW,249,3.0,-999.0,70,0.00,,,0.00,WeatherSnoop3.0,2013-12-20 18:37:00,
2013-12-20 13:42:00,65.2,55.2,30.14,West,273,1.0,-999.0,70,0.00,,,0.00,WeatherSnoop3.0,2013-12-20 18:42:00,
2013-12-20 13:47:00,65.4,55.4,30.14,SW,233,2.0,-999.0,70,0.00,,,0.00,WeatherSnoop3.0,2013-12-20 18:47:00,
2013-12-20 13:52:00,65.5,55.4,30.14,West,280,4.0,-999.0,70,0.00,,,0.00,WeatherSnoop3.0,2013-12-20 18:52:00,
2013-12-20 13:57:00,65.8,55.7,30.13,SW,224,0.0,-999.0,70,0.00,,,0.00,WeatherSnoop3.0,2013-12-20 18:57:00,
2013-12-20 14:02:00,66.1,55.6,30.13,SE,131,3.0,-999.0,69,0.00,,,0.00,WeatherSnoop3.0,2013-12-20 19:02:00,
2013-12-20 14:07:00,66.2,55.3,30.13,SSW,194,2.0,-999.0,68,0.00,,,0.00,WeatherSnoop3.0,2013-12-20 19:07:00,
2013-12-20 14:12:00,66.2,54.9,30.12,SSE,159,4.0,-999.0,67,0.00,,,0.00,WeatherSnoop3.0,2013-12-20 19:12:00,
2013-12-20 14:17:00,66.3,55.0,30.12,ESE,111,4.0,-999.0,67,0.00,,,0.00,WeatherSnoop3.0,2013-12-20 19:17:00,
2013-12-20 14:22:00,66.2,55.3,30.11,SW,229,4.0,-999.0,68,0.00,,,0.00,WeatherSnoop3.0,2013-12-20 19:22:00,
2013-12-20 14:27:00,66.3,54.6,30.11,West,262,3.0,-999.0,66,0.00,,,0.00,WeatherSnoop3.0,2013-12-20 19:27:00,
2013-12-20 14:32:00,66.4,54.7,30.11,SSE,165,2.0,-999.0,66,0.00,,,0.00,WeatherSnoop3.0,2013-12-20 19:32:00,
2013-12-20 14:33:00,66.4,54.7,30.11,NW,324,1.0,-999.0,66,0.00,,,0.00,WeatherSnoop3.0,2013-12-20 19:33:00,
2013-12-20 14:38:00,66.4,54.7,30.11,West,270,3.0,-999.0,66,0.00,,,0.00,WeatherSnoop3.0,2013-12-20 19:38:00,
2013-12-20 14:43:00,66.4,54.3,30.12,West,270,3.0,-999.0,65,0.00,,,0.00,WeatherSnoop3.0,2013-12-20 19:43:00,
2013-12-20 14:48:00,66.2,54.1,30.12,West,278,3.0,-999.0,65,0.00,,,0.00,WeatherSnoop3.0,2013-12-20 19:48:00,
2013-12-20 14:53:00,65.9,54.2,30.11,WNW,283,1.0,-999.0,66,0.00,,,0.00,WeatherSnoop3.0,2013-12-20 19:53:00,
2013-12-20 14:58:00,65.9,53.8,30.11,SW,236,2.0,-999.0,65,0.00,,,0.00,WeatherSnoop3.0,2013-12-20 19:58:00,
2013-12-20 15:03:00,66.0,53.9,30.12,WSW,248,2.0,-999.0,65,0.00,,,0.00,WeatherSnoop3.0,2013-12-20 20:03:00,
2013-12-20 15:08:00,66.0,53.9,30.12,West,269,3.0,-999.0,65,0.00,,,0.00,WeatherSnoop3.0,2013-12-20 20:08:00,
2013-12-20 15:13:00,65.8,53.7,30.12,WNW,288,6.0,-999.0,65,0.00,,,0.00,WeatherSnoop3.0,2013-12-20 20:13:00,
2013-12-20 15:18:00,65.7,53.6,30.11,SW,222,5.0,-999.0,65,0.00,,,0.00,WeatherSnoop3.0,2013-12-20 20:18:00,
2013-12-20 15:23:00,65.7,53.6,30.11,West,271,2.0,-999.0,65,0.00,,,0.00,WeatherSnoop3.0,2013-12-20 20:23:00,
2013-12-20 15:28:00,65.5,53.4,30.12,West,271,0.0,-999.0,65,0.00,,,0.00,WeatherSnoop3.0,2013-12-20 20:28:00,
2013-12-20 15:33:00,65.4,53.7,30.12,SW,219,0.0,-999.0,66,0.00,,,0.00,WeatherSnoop3.0,2013-12-20 20:33:00,
2013-12-20 15:38:00,65.3,53.2,30.12,SW,228,3.0,-999.0,65,0.00,,,0.00,WeatherSnoop3.0,2013-12-20 20:38:00,
2013-12-20 15:43:00,65.3,53.2,30.12,West,260,4.0,-999.0,65,0.00,,,0.00,WeatherSnoop3.0,2013-12-20 20:43:00,
2013-12-20 15:48:00,65.2,52.7,30.12,SW,218,2.0,-999.0,64,0.00,,,0.00,WeatherSnoop3.0,2013-12-20 20:48:00,
2013-12-20 15:53:00,65.2,52.3,30.12,SW,217,3.0,-999.0,63,0.00,,,0.00,WeatherSnoop3.0,2013-12-20 20:53:00,
2013-12-20 15:58:00,65.2,51.8,30.12,West,262,2.0,-999.0,62,0.00,,,0.00,WeatherSnoop3.0,2013-12-20 20:58:00,
2013-12-20 16:03:00,65.2,51.8,30.12,West,278,2.0,-999.0,62,0.00,,,0.00,WeatherSnoop3.0,2013-12-20 21:03:00,
2013-12-20 16:08:00,65.1,51.8,30.12,West,269,1.0,-999.0,62,0.00,,,0.00,WeatherSnoop3.0,2013-12-20 21:08:00,
2013-12-20 16:13:00,65.0,51.7,30.12,West,267,0.0,-999.0,62,0.00,,,0.00,WeatherSnoop3.0,2013-12-20 21:13:00,
2013-12-20 16:18:00,64.8,51.9,30.13,West,276,0.0,-999.0,63,0.00,,,0.00,WeatherSnoop3.0,2013-12-20 21:18:00,
2013-12-20 16:23:00,64.7,51.8,30.13,West,276,1.0,-999.0,63,0.00,,,0.00,WeatherSnoop3.0,2013-12-20 21:23:00,
2013-12-20 16:28:00,64.6,51.7,30.13,WSW,256,1.0,-999.0,63,0.00,,,0.00,WeatherSnoop3.0,2013-12-20 21:28:00,
2013-12-20 16:33:00,64.5,51.6,30.13,West,263,0.0,-999.0,63,0.00,,,0.00,WeatherSnoop3.0,2013-12-20 21:33:00,
2013-12-20 16:38:00,64.5,51.6,30.13,WSW,249,2.0,-999.0,63,0.00,,,0.00,WeatherSnoop3.0,2013-12-20 21:38:00,
2013-12-20 16:43:00,64.4,52.0,30.13,WSW,249,1.0,-999.0,64,0.00,,,0.00,WeatherSnoop3.0,2013-12-20 21:43:00,
2013-12-20 16:48:00,64.3,51.9,30.14,West,269,0.0,-999.0,64,0.00,,,0.00,WeatherSnoop3.0,2013-12-20 21:48:00,
2013-12-20 16:53:00,64.1,51.7,30.13,West,269,0.0,-999.0,64,0.00,,,0.00,WeatherSnoop3.0,2013-12-20 21:53:00,
2013-12-20 16:58:00,63.9,51.9,30.13,West,269,0.0,-999.0,65,0.00,,,0.00,WeatherSnoop3.0,2013-12-20 21:58:00,
2013-12-20 17:03:00,63.6,51.6,30.13,WSW,245,0.0,-999.0,65,0.00,,,0.00,WeatherSnoop3.0,2013-12-20 22:03:00,
2013-12-20 17:08:00,63.4,51.0,30.14,West,259,2.0,-999.0,64,0.00,,,0.00,WeatherSnoop3.0,2013-12-20 22:08:00,
2013-12-20 17:13:00,63.3,50.9,30.13,West,260,1.0,-999.0,64,0.00,,,0.00,WeatherSnoop3.0,2013-12-20 22:13:00,
2013-12-20 17:18:00,63.2,51.2,30.13,SW,225,2.0,-999.0,65,0.00,,,0.00,WeatherSnoop3.0,2013-12-20 22:18:00,
2013-12-20 17:23:00,63.0,49.8,30.13,West,266,3.0,-999.0,62,0.00,,,0.00,WeatherSnoop3.0,2013-12-20 22:23:00,
2013-12-20 17:28:00,63.2,50.0,30.13,SSW,208,1.0,-999.0,62,0.00,,,0.00,WeatherSnoop3.0,2013-12-20 22:28:00,
2013-12-20 17:33:00,63.1,49.9,30.14,SW,224,1.0,-999.0,62,0.00,,,0.00,WeatherSnoop3.0,2013-12-20 22:33:00,
2013-12-20 17:38:00,63.1,49.4,30.14,WNW,295,2.0,-999.0,61,0.00,,,0.00,WeatherSnoop3.0,2013-12-20 22:38:00,
2013-12-20 17:43:00,63.1,49.4,30.14,SW,236,1.0,-999.0,61,0.00,,,0.00,WeatherSnoop3.0,2013-12-20 22:43:00,
2013-12-20 17:48:00,63.0,49.3,30.14,West,262,1.0,-999.0,61,0.00,,,0.00,WeatherSnoop3.0,2013-12-20 22:48:00,
2013-12-20 17:53:00,62.9,49.7,30.14,WSW,238,3.0,-999.0,62,0.00,,,0.00,WeatherSnoop3.0,2013-12-20 22:53:00,
2013-12-20 17:58:00,62.8,49.6,30.14,South,180,2.0,-999.0,62,0.00,,,0.00,WeatherSnoop3.0,2013-12-20 22:58:00,
2013-12-20 18:03:00,62.7,49.5,30.14,West,264,1.0,-999.0,62,0.00,,,0.00,WeatherSnoop3.0,2013-12-20 23:03:00,
2013-12-20 18:08:00,62.5,49.3,30.14,WSW,245,0.0,-999.0,62,0.00,,,0.00,WeatherSnoop3.0,2013-12-20 23:08:00,
2013-12-20 18:13:00,62.4,49.6,30.15,WSW,256,1.0,-999.0,63,0.00,,,0.00,WeatherSnoop3.0,2013-12-20 23:13:00,
2013-12-20 18:18:00,62.4,49.6,30.15,West,281,2.0,-999.0,63,0.00,,,0.00,WeatherSnoop3.0,2013-12-20 23:18:00,
2013-12-20 18:23:00,62.2,49.4,30.14,WSW,239,2.0,-999.0,63,0.00,,,0.00,WeatherSnoop3.0,2013-12-20 23:23:00,
2013-12-20 18:28:00,62.0,49.7,30.14,SW,217,1.0,-999.0,64,0.00,,,0.00,WeatherSnoop3.0,2013-12-20 23:28:00,
2013-12-20 18:33:00,61.9,49.6,30.14,SW,236,1.0,-999.0,64,0.00,,,0.00,WeatherSnoop3.0,2013-12-20 23:33:00,
2013-12-20 18:38:00,61.7,49.8,30.14,WSW,257,1.0,-999.0,65,0.00,,,0.00,WeatherSnoop3.0,2013-12-20 23:38:00,
2013-12-20 18:43:00,61.6,50.1,30.14,SSW,193,1.0,-999.0,66,0.00,,,0.00,WeatherSnoop3.0,2013-12-20 23:43:00,
2013-12-20 18:48:00,61.4,49.9,30.14,SW,225,2.0,-999.0,66,0.00,,,0.00,WeatherSnoop3.0,2013-12-20 23:48:00,
2013-12-20 18:53:00,61.3,50.2,30.14,West,270,1.0,-999.0,67,0.00,,,0.00,WeatherSnoop3.0,2013-12-20 23:53:00,
2013-12-20 18:58:00,61.1,50.1,30.14,West,260,1.0,-999.0,67,0.00,,,0.00,WeatherSnoop3.0,2013-12-20 23:58:00,
2013-12-20 19:03:00,60.9,50.3,30.14,SW,221,2.0,-999.0,68,0.00,,,0.00,WeatherSnoop3.0,2013-12-21 00:03:00,
2013-12-20 19:08:00,60.7,50.1,30.14,SW,229,0.0,-999.0,68,0.00,,,0.00,WeatherSnoop3.0,2013-12-21 00:08:00,
2013-12-20 19:13:00,60.6,50.0,30.15,WSW,249,1.0,-999.0,68,0.00,,,0.00,WeatherSnoop3.0,2013-12-21 00:13:00,
2013-12-20 19:18:00,60.4,50.2,30.15,West,262,1.0,-999.0,69,0.00,,,0.00,WeatherSnoop3.0,2013-12-21 00:18:00,
2013-12-20 19:23:00,60.2,50.0,30.15,West,269,1.0,-999.0,69,0.00,,,0.00,WeatherSnoop3.0,2013-12-21 00:23:00,
2013-12-20 19:28:00,60.0,50.2,30.15,West,262,1.0,-999.0,70,0.00,,,0.00,WeatherSnoop3.0,2013-12-21 00:28:00,
2013-12-20 19:33:00,59.9,50.1,30.15,WSW,257,1.0,-999.0,70,0.00,,,0.00,WeatherSnoop3.0,2013-12-21 00:33:00,
2013-12-20 19:38:00,59.8,50.0,30.15,WSW,240,1.0,-999.0,70,0.00,,,0.00,WeatherSnoop3.0,2013-12-21 00:38:00,
2013-12-20 19:43:00,59.7,50.3,30.15,WSW,245,1.0,-999.0,71,0.00,,,0.00,WeatherSnoop3.0,2013-12-21 00:43:00,
2013-12-20 19:48:00,59.6,50.2,30.15,SW,228,1.0,-999.0,71,0.00,,,0.00,WeatherSnoop3.0,2013-12-21 00:48:00,
2013-12-20 19:53:00,59.6,50.2,30.15,SSW,193,0.0,-999.0,71,0.00,,,0.00,WeatherSnoop3.0,2013-12-21 00:53:00,
2013-12-20 19:58:00,59.5,50.1,30.15,SW,226,1.0,-999.0,71,0.00,,,0.00,WeatherSnoop3.0,2013-12-21 00:58:00,
2013-12-20 20:03:00,59.4,50.0,30.15,SW,229,1.0,-999.0,71,0.00,,,0.00,WeatherSnoop3.0,2013-12-21 01:03:00,
2013-12-20 20:08:00,59.3,49.9,30.15,WSW,243,1.0,-999.0,71,0.00,,,0.00,WeatherSnoop3.0,2013-12-21 01:08:00,
2013-12-20 20:13:00,59.3,50.3,30.15,WSW,253,4.0,-999.0,72,0.00,,,0.00,WeatherSnoop3.0,2013-12-21 01:13:00,
2013-12-20 20:18:00,59.4,50.0,30.15,SW,231,2.0,-999.0,71,0.00,,,0.00,WeatherSnoop3.0,2013-12-21 01:18:00,
2013-12-20 20:23:00,59.6,50.2,30.14,SSW,208,1.0,-999.0,71,0.00,,,0.00,WeatherSnoop3.0,2013-12-21 01:23:00,
2013-12-20 20:28:00,59.6,50.2,30.14,SW,222,0.0,-999.0,71,0.00,,,0.00,WeatherSnoop3.0,2013-12-21 01:28:00,
2013-12-20 20:33:00,59.6,50.2,30.14,SW,226,2.0,-999.0,71,0.00,,,0.00,WeatherSnoop3.0,2013-12-21 01:33:00,
2013-12-20 20:38:00,59.6,50.2,30.14,SSW,204,1.0,-999.0,71,0.00,,,0.00,WeatherSnoop3.0,2013-12-21 01:38:00,
2013-12-20 20:43:00,59.5,50.1,30.15,West,266,0.0,-999.0,71,0.00,,,0.00,WeatherSnoop3.0,2013-12-21 01:43:00,
2013-12-20 20:48:00,59.4,50.4,30.15,WSW,256,1.0,-999.0,72,0.00,,,0.00,WeatherSnoop3.0,2013-12-21 01:48:00,
2013-12-20 20:53:00,59.3,50.3,30.15,WSW,249,1.0,-999.0,72,0.00,,,0.00,WeatherSnoop3.0,2013-12-21 01:53:00,
2013-12-20 20:58:00,59.3,50.3,30.15,West,267,1.0,-999.0,72,0.00,,,0.00,WeatherSnoop3.0,2013-12-21 01:58:00,
2013-12-20 21:03:00,59.2,50.2,30.15,WSW,238,1.0,-999.0,72,0.00,,,0.00,WeatherSnoop3.0,2013-12-21 02:03:00,
2013-12-20 21:08:00,59.0,50.0,30.15,WSW,245,1.0,-999.0,72,0.00,,,0.00,WeatherSnoop3.0,2013-12-21 02:08:00,
2013-12-20 21:13:00,58.9,50.3,30.15,West,262,1.0,-999.0,73,0.00,,,0.00,WeatherSnoop3.0,2013-12-21 02:13:00,
2013-12-20 21:18:00,59.0,50.4,30.15,West,270,1.0,-999.0,73,0.00,,,0.00,WeatherSnoop3.0,2013-12-21 02:18:00,
2013-12-20 21:23:00,59.0,50.4,30.15,SW,221,1.0,-999.0,73,0.00,,,0.00,WeatherSnoop3.0,2013-12-21 02:23:00,
2013-12-20 21:28:00,58.7,50.1,30.15,WSW,253,0.0,-999.0,73,0.00,,,0.00,WeatherSnoop3.0,2013-12-21 02:28:00,
2013-12-20 21:33:00,58.5,49.9,30.15,WSW,252,0.0,-999.0,73,0.00,,,0.00,WeatherSnoop3.0,2013-12-21 02:33:00,
2013-12-20 21:38:00,58.3,50.0,30.15,WSW,255,0.0,-999.0,74,0.00,,,0.00,WeatherSnoop3.0,2013-12-21 02:38:00,
2013-12-20 21:43:00,58.0,49.8,30.15,WSW,253,0.0,-999.0,74,0.00,,,0.00,WeatherSnoop3.0,2013-12-21 02:43:00,
2013-12-20 21:48:00,57.8,49.9,30.15,WSW,253,0.0,-999.0,75,0.00,,,0.00,WeatherSnoop3.0,2013-12-21 02:48:00,
2013-12-20 21:53:00,57.5,49.6,30.15,WSW,253,0.0,-999.0,75,0.00,,,0.00,WeatherSnoop3.0,2013-12-21 02:53:00,
2013-12-20 21:58:00,57.3,49.8,30.15,WSW,253,0.0,-999.0,76,0.00,,,0.00,WeatherSnoop3.0,2013-12-21 02:58:00,
2013-12-20 22:03:00,57.2,49.7,30.15,WSW,253,0.0,-999.0,76,0.00,,,0.00,WeatherSnoop3.0,2013-12-21 03:03:00,
2013-12-20 22:08:00,57.0,49.9,30.15,WSW,253,0.0,-999.0,77,0.00,,,0.00,WeatherSnoop3.0,2013-12-21 03:08:00,
2013-12-20 22:13:00,56.8,49.7,30.15,WSW,253,0.0,-999.0,77,0.00,,,0.00,WeatherSnoop3.0,2013-12-21 03:13:00,
2013-12-20 22:18:00,56.6,49.5,30.15,WSW,253,0.0,-999.0,77,0.00,,,0.00,WeatherSnoop3.0,2013-12-21 03:18:00,
2013-12-20 22:23:00,56.4,49.6,30.15,WSW,253,0.0,-999.0,78,0.00,,,0.00,WeatherSnoop3.0,2013-12-21 03:23:00,
2013-12-20 22:28:00,56.1,49.3,30.15,WSW,253,0.0,-999.0,78,0.00,,,0.00,WeatherSnoop3.0,2013-12-21 03:28:00,
2013-12-20 22:33:00,55.8,49.4,30.15,WSW,253,0.0,-999.0,79,0.00,,,0.00,WeatherSnoop3.0,2013-12-21 03:33:00,
2013-12-20 22:38:00,55.5,49.1,30.15,WSW,253,0.0,-999.0,79,0.00,,,0.00,WeatherSnoop3.0,2013-12-21 03:38:00,
2013-12-20 22:43:00,55.3,49.2,30.15,WSW,253,0.0,-999.0,80,0.00,,,0.00,WeatherSnoop3.0,2013-12-21 03:43:00,
2013-12-20 22:48:00,55.0,48.9,30.15,WSW,253,0.0,-999.0,80,0.00,,,0.00,WeatherSnoop3.0,2013-12-21 03:48:00,
2013-12-20 22:53:00,54.7,48.7,30.15,WSW,253,0.0,-999.0,80,0.00,,,0.00,WeatherSnoop3.0,2013-12-21 03:53:00,
2013-12-20 22:58:00,54.3,48.6,30.15,WSW,253,0.0,-999.0,81,0.00,,,0.00,WeatherSnoop3.0,2013-12-21 03:58:00,
2013-12-20 23:03:00,54.1,48.4,30.15,WSW,253,0.0,-999.0,81,0.00,,,0.00,WeatherSnoop3.0,2013-12-21 04:03:00,
2013-12-20 23:08:00,53.8,48.4,30.15,WSW,253,0.0,-999.0,82,0.00,,,0.00,WeatherSnoop3.0,2013-12-21 04:08:00,
2013-12-20 23:13:00,53.6,48.6,30.15,WSW,253,0.0,-999.0,83,0.00,,,0.00,WeatherSnoop3.0,2013-12-21 04:13:00,
2013-12-20 23:18:00,53.5,48.5,30.15,WSW,253,0.0,-999.0,83,0.00,,,0.00,WeatherSnoop3.0,2013-12-21 04:18:00,
2013-12-20 23:23:00,53.4,48.7,30.15,WSW,253,0.0,-999.0,84,0.00,,,0.00,WeatherSnoop3.0,2013-12-21 04:23:00,
2013-12-20 23:28:00,53.3,48.6,30.15,WSW,253,0.0,-999.0,84,0.00,,,0.00,WeatherSnoop3.0,2013-12-21 04:28:00,
2013-12-20 23:33:00,53.2,48.5,30.15,WSW,253,0.0,-999.0,84,0.00,,,0.00,WeatherSnoop3.0,2013-12-21 04:33:00,
2013-12-20 23:38:00,53.0,48.3,30.15,WSW,253,0.0,-999.0,84,0.00,,,0.00,WeatherSnoop3.0,2013-12-21 04:38:00,
2013-12-20 23:43:00,52.8,48.1,30.15,WSW,253,0.0,-999.0,84,0.00,,,0.00,WeatherSnoop3.0,2013-12-21 04:43:00,
2013-12-20 23:48:00,52.6,48.2,30.15,WSW,253,0.0,-999.0,85,0.00,,,0.00,WeatherSnoop3.0,2013-12-21 04:48:00,
2013-12-20 23:53:00,52.5,48.1,30.15,WSW,253,0.0,-999.0,85,0.00,,,0.00,WeatherSnoop3.0,2013-12-21 04:53:00,
2013-12-20 23:58:00,52.4,48.0,30.15,WSW,252,0.0,-999.0,85,0.00,,,0.00,WeatherSnoop3.0,2013-12-21 04:58:00,